Weather History for KIKV - May, 2013

Change the Weather History Date:

Wednesday, May 22, 2013

  Actual Average (KDSM) Record (KDSM)
Temperature  
Mean Temperature 58 °F 64 °F  
Max Temperature 62 °F 74 °F 98 °F (1925)
Min Temperature 53 °F 54 °F 33 °F (1963)
Degree Days  
Heating Degree Days 8 3  
Month to date heating degree days 124  
Since 1 July heating degree days 6163  
Cooling Degree Days 0 3  
Month to date cooling degree days 33  
Year to date cooling degree days 47  
Growing Degree Days 8 (Base 50)    
Moisture  
Dew Point 53 °F    
Average Humidity 84    
Maximum Humidity 100    
Minimum Humidity 72    
Precipitation  
Precipitation 0.05 in 0.16 in 2.01 in (1952)
Month to date precipitation 3.40  
Year to date precipitation 11.84  
Snow  
Snow 0.00 in 0.00 in - ()
Month to date snowfall 0.0  
Since 1 July snowfall 35.3  
Snow Depth -    
Sea Level Pressure  
Sea Level Pressure 29.73 in    
Wind  
Wind Speed 9 mph (West)    
Max Wind Speed 17 mph    
Max Gust Speed 24 mph    
Visibility 9 miles    
Events Rain    
T = Trace of Precipitation, MM = Missing Value Source: NWS Daily Summary

Daily Weather History Graph

Daily Weather History Graph

Search for Another Location

Airport or City:

Trip Planner

Search our weather history database for the weather conditions in past years. The results will help you decide how hot, cold, wet, or windy it might be!

Date:

Astronomy

May. 22, 2013 Rise Set
Actual Time 5:48 AM CDT 8:34 PM CDT
Civil Twilight 5:15 AM CDT 9:06 PM CDT
Nautical Twilight 4:34 AM CDT 9:47 PM CDT
Astronomical Twilight 3:48 AM CDT 10:34 PM CDT
Moon 5:55 PM CDT (5/22) 3:55 AM CDT (5/22)
Length of Visible Light 15h 51m
Length of Day
14h 46m
Waxing Gibbous, 91% of the Moon is Illuminated
May 22
Waxing Gibbous
May 24
Full
May 31
Last Quarter
Jun 8
New
Jun 16
First Quarter

Hourly Weather History & Observations

Time (CDT) Temp. Dew Point Humidity Pressure Visibility Wind Dir Wind Speed Gust Speed Precip Events Conditions
12:15 AM 57.2 °F 50.0 °F 77% 29.67 in 10.0 mi South 3.5 mph - N/A   Scattered Clouds
12:35 AM 57.2 °F 51.8 °F 82% 29.66 in 10.0 mi South 4.6 mph - N/A   Overcast
12:55 AM 59.0 °F 51.8 °F 77% 29.66 in 10.0 mi SW 6.9 mph - N/A   Overcast
1:15 AM 59.0 °F 51.8 °F 77% 29.66 in 10.0 mi SW 6.9 mph - N/A   Overcast
1:35 AM 59.0 °F 51.8 °F 77% 29.67 in 10.0 mi SW 5.8 mph - N/A   Overcast
1:55 AM 59.0 °F 53.6 °F 82% 29.67 in 10.0 mi WSW 5.8 mph - N/A   Overcast
2:15 AM 59.0 °F 53.6 °F 82% 29.67 in 10.0 mi SW 5.8 mph - N/A   Overcast
2:35 AM 59.0 °F 53.6 °F 82% 29.68 in 10.0 mi SSW 4.6 mph - N/A   Overcast
2:55 AM 59.0 °F 53.6 °F 82% 29.67 in 10.0 mi SW 4.6 mph - N/A   Overcast
3:15 AM 59.0 °F 55.4 °F 88% 29.67 in 10.0 mi WSW 3.5 mph - N/A   Overcast
3:35 AM 59.0 °F 55.4 °F 88% 29.67 in 10.0 mi West 8.1 mph - N/A   Overcast
3:55 AM 59.0 °F 55.4 °F 88% 29.67 in 9.0 mi West 8.1 mph - N/A   Overcast
4:15 AM 57.2 °F 55.4 °F 94% 29.66 in 6.0 mi West 8.1 mph - N/A   Light Drizzle
4:35 AM 57.2 °F 55.4 °F 94% 29.66 in 5.0 mi West 10.4 mph - N/A   Overcast
4:55 AM 55.4 °F 55.4 °F 100% 29.66 in 2.5 mi West 9.2 mph - N/A   Light Drizzle
5:15 AM 57.2 °F 53.6 °F 88% 29.66 in 5.0 mi West 8.1 mph - N/A   Overcast
5:35 AM 57.2 °F 53.6 °F 88% 29.66 in 7.0 mi West 6.9 mph - N/A   Overcast
5:55 AM 55.4 °F 53.6 °F 94% 29.66 in 9.0 mi West 6.9 mph - N/A   Overcast
6:15 AM 55.4 °F 53.6 °F 94% 29.66 in 10.0 mi West 8.1 mph 13.8 mph N/A   Overcast
6:35 AM 55.4 °F 53.6 °F 94% 29.66 in 10.0 mi West 8.1 mph 15.0 mph N/A   Overcast
6:55 AM 55.4 °F 53.6 °F 94% 29.66 in 10.0 mi West 10.4 mph - N/A   Overcast
7:15 AM 55.4 °F 53.6 °F 94% 29.66 in 10.0 mi West 12.7 mph - N/A   Overcast
7:35 AM 55.4 °F 53.6 °F 94% 29.67 in 10.0 mi West 9.2 mph - N/A   Overcast
7:55 AM 55.4 °F 53.6 °F 94% 29.67 in 10.0 mi West 8.1 mph - N/A   Overcast
8:15 AM 55.4 °F 53.6 °F 94% 29.67 in 7.0 mi West 11.5 mph - N/A   Overcast
8:35 AM 55.4 °F 53.6 °F 94% 29.68 in 7.0 mi WSW 8.1 mph - N/A   Overcast
8:55 AM 55.4 °F 53.6 °F 94% 29.68 in 5.0 mi WSW 8.1 mph - N/A   Overcast
9:15 AM 57.2 °F 55.4 °F 94% 29.68 in 5.0 mi WSW 10.4 mph - N/A   Mostly Cloudy
9:35 AM 57.2 °F 53.6 °F 88% 29.69 in 10.0 mi WSW 8.1 mph - N/A   Mostly Cloudy
9:55 AM 59.0 °F 55.4 °F 88% 29.69 in 10.0 mi WSW 8.1 mph - N/A   Overcast
10:15 AM 59.0 °F 53.6 °F 82% 29.69 in 10.0 mi SW 6.9 mph - N/A   Overcast
10:35 AM 59.0 °F 55.4 °F 88% 29.69 in 10.0 mi SW 8.1 mph - N/A   Overcast
10:55 AM 59.0 °F 55.4 °F 88% 29.70 in 10.0 mi WSW 8.1 mph - N/A   Overcast
11:15 AM 60.8 °F 55.4 °F 82% 29.70 in 10.0 mi WSW 10.4 mph - N/A   Overcast
11:35 AM 60.8 °F 53.6 °F 77% 29.71 in 10.0 mi WSW 9.2 mph 15.0 mph N/A   Overcast
11:55 AM 60.8 °F 55.4 °F 82% 29.71 in 10.0 mi SW 8.1 mph - N/A   Overcast
12:15 PM 62.6 °F 55.4 °F 77% 29.71 in 10.0 mi WSW 11.5 mph - N/A   Overcast
12:35 PM 59.0 °F 55.4 °F 88% 29.71 in 2.0 mi WNW 11.5 mph 18.4 mph N/A Rain Rain
12:55 PM 59.0 °F 57.2 °F 94% 29.71 in 2.0 mi WSW 5.8 mph 12.7 mph 0.04 in   Light Drizzle
1:15 PM 59.0 °F 57.2 °F 94% 29.72 in 6.0 mi WSW 8.1 mph - N/A   Light Drizzle
1:35 PM 60.8 °F 57.2 °F 88% 29.72 in 10.0 mi WSW 11.5 mph - N/A   Mostly Cloudy
1:55 PM 62.6 °F 55.4 °F 77% 29.72 in 10.0 mi WNW 17.3 mph 24.2 mph 0.01 in   Overcast
2:15 PM 62.6 °F 55.4 °F 77% 29.72 in 10.0 mi West 17.3 mph - N/A   Mostly Cloudy
2:35 PM 62.6 °F 53.6 °F 72% 29.73 in 10.0 mi WNW 17.3 mph 23.0 mph N/A   Mostly Cloudy
2:55 PM 60.8 °F 53.6 °F 77% 29.74 in 10.0 mi WNW 16.1 mph 23.0 mph N/A   Mostly Cloudy
3:15 PM 60.8 °F 53.6 °F 77% 29.74 in 10.0 mi WNW 15.0 mph 23.0 mph N/A   Overcast
3:35 PM 60.8 °F 53.6 °F 77% 29.75 in 10.0 mi WNW 15.0 mph 24.2 mph N/A   Overcast
3:55 PM 60.8 °F 53.6 °F 77% 29.75 in 10.0 mi WNW 13.8 mph 19.6 mph N/A   Overcast
4:15 PM 60.8 °F 51.8 °F 72% 29.76 in 10.0 mi NW 16.1 mph - N/A   Overcast
4:35 PM 59.0 °F 51.8 °F 77% 29.76 in 10.0 mi WNW 16.1 mph 21.9 mph N/A   Overcast
4:55 PM 59.0 °F 51.8 °F 77% 29.77 in 10.0 mi WNW 10.4 mph 20.7 mph N/A   Overcast
5:15 PM 59.0 °F 51.8 °F 77% 29.77 in 10.0 mi WNW 15.0 mph 21.9 mph N/A   Overcast
5:35 PM 59.0 °F 51.8 °F 77% 29.78 in 10.0 mi WNW 13.8 mph - N/A   Overcast
5:55 PM 59.0 °F 51.8 °F 77% 29.79 in 10.0 mi WNW 12.7 mph 20.7 mph N/A   Overcast
6:15 PM 59.0 °F 51.8 °F 77% 29.79 in 10.0 mi WNW 13.8 mph - N/A   Overcast
6:35 PM 59.0 °F 50.0 °F 72% 29.79 in 10.0 mi NW 12.7 mph 19.6 mph N/A   Overcast
6:55 PM 57.2 °F 50.0 °F 77% 29.80 in 10.0 mi NW 15.0 mph 20.7 mph N/A   Overcast
7:15 PM 57.2 °F 50.0 °F 77% 29.81 in 10.0 mi NW 11.5 mph 18.4 mph N/A   Overcast
7:35 PM 57.2 °F 50.0 °F 77% 29.81 in 10.0 mi NW 11.5 mph - N/A   Overcast
7:55 PM 57.2 °F 50.0 °F 77% 29.82 in 10.0 mi NW 12.7 mph 18.4 mph N/A   Overcast
8:15 PM 57.2 °F 50.0 °F 77% 29.82 in 10.0 mi NW 13.8 mph - N/A   Overcast
8:35 PM 55.4 °F 50.0 °F 82% 29.83 in 10.0 mi NW 12.7 mph 18.4 mph N/A   Light Drizzle
8:55 PM 55.4 °F 50.0 °F 82% 29.84 in 10.0 mi NW 12.7 mph 20.7 mph N/A   Overcast
9:15 PM 55.4 °F 50.0 °F 82% 29.84 in 10.0 mi NW 13.8 mph - N/A   Overcast
9:35 PM 55.4 °F 50.0 °F 82% 29.85 in 10.0 mi NW 11.5 mph - N/A   Overcast
9:55 PM 55.4 °F 50.0 °F 82% 29.86 in 10.0 mi WNW 10.4 mph 16.1 mph N/A   Overcast
10:15 PM 55.4 °F 50.0 °F 82% 29.87 in 10.0 mi WNW 10.4 mph 18.4 mph N/A   Overcast
10:35 PM 55.4 °F 51.8 °F 88% 29.87 in 9.0 mi NW 12.7 mph - N/A   Overcast
10:55 PM 53.6 °F 51.8 °F 94% 29.88 in 9.0 mi WNW 10.4 mph - N/A   Overcast
11:15 PM 53.6 °F 51.8 °F 94% 29.88 in 7.0 mi NW 9.2 mph - N/A   Overcast
11:35 PM 53.6 °F 51.8 °F 94% 29.88 in 10.0 mi NW 6.9 mph - N/A   Overcast
11:55 PM 55.4 °F 51.8 °F 88% 29.89 in 10.0 mi NW 12.7 mph - N/A   Overcast